• In Germany
  • List of Countries
  • For 7 days
  • Water Temperature
  • Satellite Maps
  • Weather Map
  • Weather Widgets
  • user-avatar
    Login

    Hourly Weather Smolan

    Today, 23 July, Monday

    Time Temperature Precipitation Wind Pressure Humidity
    00:00 +17°C° 0 mm 2 mps 653 mmHg 71%
    01:00 +17°C° 0 mm 2 mps 652 mmHg 70%
    02:00 +16°C° 0 mm 2 mps 652 mmHg 69%
    03:00 +16°C° 0 mm 2 mps 652 mmHg 68%
    04:00 +16°C° 0 mm 2 mps 652 mmHg 67%
    05:00 +16°C° 0 mm 2 mps 652 mmHg 65%
    06:00 +19°C° 0 mm 1 mps 652 mmHg 60%
    07:00 +21°C° 0 mm 1 mps 653 mmHg 54%
    08:00 +23°C° 0 mm 1 mps 653 mmHg 49%
    09:00 +24°C° 0 mm 1 mps 653 mmHg 45%
    10:00 +26°C° 0 mm 2 mps 653 mmHg 41%
    11:00 +27°C° 0 mm 2 mps 653 mmHg 37%
    12:00 +27°C° 0.1 mm 2 mps 653 mmHg 39%
    13:00 +27°C° 0.1 mm 2 mps 653 mmHg 40%
    14:00 +27°C° 0.1 mm 2 mps 652 mmHg 42%
    15:00 +26°C° 0.1 mm 2 mps 652 mmHg 44%
    16:00 +25°C° 0.1 mm 2 mps 651 mmHg 47%
    17:00 +25°C° 0.1 mm 3 mps 651 mmHg 49%
    18:00 +21°C° 3 mm 2 mps 650 mmHg 61%
    19:00 +19°C° 3 mm 2 mps 649 mmHg 72%
    20:00 +16°C° 3 mm 2 mps 649 mmHg 83%
    21:00 +16°C° 3.3 mm 2 mps 649 mmHg 85%
    22:00 +15°C° 3.3 mm 2 mps 649 mmHg 88%
    23:00 +15°C° 3.3 mm 2 mps 649 mmHg 90%

    Tomorrow, 24 July, Tuesday

    Time Temperature Precipitation Wind Pressure Humidity
    00:00 +15°C° 1.1 mm 2 mps 648 mmHg 90%
    01:00 +14°C° 1.1 mm 2 mps 648 mmHg 90%
    02:00 +14°C° 1.1 mm 2 mps 648 mmHg 90%
    03:00 +14°C° 0.2 mm 2 mps 648 mmHg 90%
    04:00 +13°C° 0.2 mm 2 mps 648 mmHg 89%
    05:00 +13°C° 0.2 mm 2 mps 648 mmHg 89%
    06:00 +13°C° 0.1 mm 3 mps 648 mmHg 86%
    07:00 +14°C° 0.1 mm 3 mps 649 mmHg 83%
    08:00 +16°C° 0.1 mm 3 mps 649 mmHg 80%
    09:00 +17°C° 0.1 mm 3 mps 650 mmHg 73%
    10:00 +18°C° 0.1 mm 3 mps 650 mmHg 67%
    11:00 +20°C° 0.1 mm 3 mps 651 mmHg 61%
    12:00 +20°C° 0.5 mm 3 mps 651 mmHg 62%
    13:00 +20°C° 0.5 mm 3 mps 651 mmHg 64%
    14:00 +20°C° 0.5 mm 3 mps 651 mmHg 65%
    15:00 +20°C° 0.6 mm 3 mps 651 mmHg 66%
    16:00 +20°C° 0.6 mm 2 mps 650 mmHg 67%
    17:00 +20°C° 0.6 mm 2 mps 650 mmHg 68%
    18:00 +18°C° 0.2 mm 2 mps 650 mmHg 73%
    19:00 +17°C° 0.2 mm 2 mps 650 mmHg 78%
    20:00 +16°C° 0.2 mm 1 mps 650 mmHg 82%
    21:00 +15°C° 0.1 mm 1 mps 650 mmHg 84%
    22:00 +15°C° 0.1 mm 2 mps 650 mmHg 85%
    23:00 +14°C° 0.1 mm 2 mps 650 mmHg 86%

    Day after tomorrow, 25 July, Wednesday

    Time Temperature Precipitation Wind Pressure Humidity
    00:00 +14°C° 0 mm 2 mps 650 mmHg 85%
    01:00 +14°C° 0 mm 2 mps 650 mmHg 85%
    02:00 +13°C° 0 mm 2 mps 650 mmHg 84%
    03:00 +13°C° 0 mm 2 mps 650 mmHg 84%
    04:00 +13°C° 0 mm 2 mps 650 mmHg 84%
    05:00 +13°C° 0 mm 2 mps 650 mmHg 84%
    06:00 +15°C° 0 mm 2 mps 651 mmHg 78%
    07:00 +17°C° 0 mm 2 mps 652 mmHg 73%
    08:00 +19°C° 0 mm 1 mps 652 mmHg 68%
    09:00 +21°C° 0.1 mm 1 mps 653 mmHg 64%
    10:00 +21°C° 0.1 mm 2 mps 653 mmHg 60%
    11:00 +23°C° 0.1 mm 2 mps 654 mmHg 56%
    12:00 +24°C° 0.5 mm 2 mps 654 mmHg 56%
    13:00 +24°C° 0.5 mm 2 mps 653 mmHg 56%
    14:00 +24°C° 0.5 mm 2 mps 653 mmHg 57%
    15:00 +24°C° 0.7 mm 1 mps 653 mmHg 59%
    16:00 +23°C° 0.7 mm 1 mps 653 mmHg 62%
    17:00 +22°C° 0.7 mm 1 mps 653 mmHg 64%
    18:00 +21°C° 0.4 mm 1 mps 652 mmHg 69%
    19:00 +19°C° 0.4 mm 1 mps 652 mmHg 75%
    20:00 +18°C° 0.4 mm 1 mps 652 mmHg 80%
    21:00 +18°C° 0.6 mm 1 mps 652 mmHg 82%
    22:00 +16°C° 0.6 mm 1 mps 652 mmHg 84%
    23:00 +16°C° 0.6 mm 1 mps 652 mmHg 85%

    26 July, Thursday

    Time Temperature Precipitation Wind Pressure Humidity
    00:00 +15°C° 0.3 mm 1 mps 652 mmHg 86%
    01:00 +15°C° 0.3 mm 1 mps 652 mmHg 86%
    02:00 +15°C° 0.3 mm 1 mps 652 mmHg 87%
    03:00 +15°C° 0.2 mm 1 mps 652 mmHg 87%
    04:00 +15°C° 0.2 mm 1 mps 652 mmHg 87%
    05:00 +15°C° 0.2 mm 1 mps 652 mmHg 87%
    06:00 +16°C° 0.3 mm 1 mps 652 mmHg 84%
    07:00 +18°C° 0.3 mm 1 mps 653 mmHg 81%
    08:00 +19°C° 0.3 mm 1 mps 654 mmHg 78%
    09:00 +20°C° 0.5 mm 1 mps 654 mmHg 73%
    10:00 +22°C° 0.5 mm 1 mps 654 mmHg 68%
    11:00 +23°C° 0.5 mm 1 mps 655 mmHg 62%
    12:00 +23°C° 0.6 mm 1 mps 655 mmHg 62%
    13:00 +24°C° 0.6 mm 1 mps 655 mmHg 61%
    14:00 +24°C° 0.6 mm 1 mps 654 mmHg 60%
    15:00 +24°C° 0.3 mm 1 mps 654 mmHg 62%
    16:00 +23°C° 0.3 mm 1 mps 654 mmHg 63%
    17:00 +23°C° 0.3 mm 1 mps 654 mmHg 65%
    18:00 +21°C° 0.2 mm 1 mps 654 mmHg 69%
    19:00 +20°C° 0.2 mm 1 mps 653 mmHg 73%
    20:00 +19°C° 0.2 mm 1 mps 653 mmHg 76%
    21:00 +18°C° 0.6 mm 1 mps 653 mmHg 79%
    22:00 +16°C° 0.6 mm 1 mps 653 mmHg 81%
    23:00 +16°C° 0.6 mm 2 mps 653 mmHg 83%

    27 July, Friday

    Time Temperature Precipitation Wind Pressure Humidity
    00:00 +16°C° 0.4 mm 2 mps 653 mmHg 83%
    01:00 +15°C° 0.4 mm 2 mps 653 mmHg 83%
    02:00 +15°C° 0.4 mm 2 mps 653 mmHg 84%
    03:00 +15°C° 0.3 mm 2 mps 653 mmHg 84%
    04:00 +15°C° 0.3 mm 2 mps 653 mmHg 85%
    05:00 +15°C° 0.3 mm 2 mps 653 mmHg 85%
    06:00 +16°C° 0.1 mm 1 mps 654 mmHg 81%
    07:00 +19°C° 0.1 mm 1 mps 654 mmHg 77%
    08:00 +20°C° 0.1 mm 1 mps 655 mmHg 73%
    09:00 +22°C° 0.4 mm 1 mps 655 mmHg 68%
    10:00 +23°C° 0.4 mm 1 mps 655 mmHg 63%
    11:00 +24°C° 0.4 mm 1 mps 656 mmHg 58%
    12:00 +24°C° 0.9 mm 1 mps 655 mmHg 58%
    13:00 +25°C° 0.9 mm 1 mps 655 mmHg 59%
    14:00 +25°C° 0.9 mm 1 mps 655 mmHg 60%
    15:00 +24°C° 0.5 mm 1 mps 655 mmHg 61%
    16:00 +24°C° 0.5 mm 1 mps 655 mmHg 62%
    17:00 +24°C° 0.5 mm 1 mps 654 mmHg 64%
    18:00 +22°C° 0.2 mm 1 mps 654 mmHg 67%
    19:00 +21°C° 0.2 mm 1 mps 654 mmHg 71%
    20:00 +19°C° 0.2 mm 1 mps 653 mmHg 75%
    21:00 +19°C° 0.3 mm 1 mps 653 mmHg 77%
    22:00 +18°C° 0.3 mm 1 mps 653 mmHg 79%
    23:00 +18°C° 0.3 mm 1 mps 653 mmHg 81%

    28 July, Saturday

    Time Temperature Precipitation Wind Pressure Humidity
    00:00 +16°C° 0.1 mm 2 mps 653 mmHg 81%
    01:00 +16°C° 0.1 mm 2 mps 653 mmHg 82%
    02:00 +16°C° 0.1 mm 2 mps 653 mmHg 83%
    03:00 +16°C° 0.1 mm 2 mps 653 mmHg 83%
    04:00 +15°C° 0.1 mm 2 mps 653 mmHg 83%
    05:00 +15°C° 0.1 mm 2 mps 653 mmHg 83%
    06:00 +17°C° 0.1 mm 2 mps 653 mmHg 78%
    07:00 +19°C° 0.1 mm 2 mps 654 mmHg 73%
    08:00 +22°C° 0.1 mm 1 mps 655 mmHg 68%
    09:00 +23°C° 0.5 mm 2 mps 655 mmHg 64%
    10:00 +24°C° 0.5 mm 2 mps 655 mmHg 60%
    11:00 +25°C° 0.5 mm 2 mps 655 mmHg 56%
    12:00 +25°C° 0.8 mm 2 mps 655 mmHg 56%
    13:00 +26°C° 0.8 mm 2 mps 655 mmHg 55%
    14:00 +26°C° 0.8 mm 2 mps 655 mmHg 54%
    15:00 +26°C° 0.6 mm 2 mps 655 mmHg 55%
    16:00 +25°C° 0.6 mm 2 mps 655 mmHg 57%
    17:00 +25°C° 0.6 mm 2 mps 654 mmHg 58%
    18:00 +23°C° 0.2 mm 2 mps 654 mmHg 64%
    19:00 +21°C° 0.2 mm 2 mps 654 mmHg 69%
    20:00 +20°C° 0.2 mm 1 mps 653 mmHg 74%
    21:00 +18°C° 0 mm 2 mps 653 mmHg 76%
    22:00 +18°C° 0 mm 2 mps 653 mmHg 78%
    23:00 +17°C° 0 mm 2 mps 653 mmHg 80%
    Show more